Regional Weather Roundup
Issued by NWS

Home | Current Version | Previous Version | Graphics & Text | Print | Product List | Glossary Off
Versions: 1 2 3 4 5 6 7 8 9 10 11 12 13 14 15 16 17 18 19 20 21 22 23 24 25 26 27 28 29 30 31 32 33 34 35 36 37 38 39 40 41 42 43 44 45 46 47 48 49 50

000
ASUS43 KMPX 231910
RWRMN
WEATHER ROUNDUP FOR MINNESOTA
NATIONAL WEATHER SERVICE TWIN CITIES/CHANHASSEN MN
200 PM CDT SAT MAY 23 2015


NOTE: "FAIR" INDICATES FEW OR NO CLOUDS BELOW 12,000 FEET WITH NO
SIGNIFICANT WEATHER AND/OR OBSTRUCTIONS TO VISIBILITY. N/A MEANS
CURRENT SKY AND/OR WEATHER CONDITIONS ARE NOT AVAILABLE.

MNZ060>063-068>070-232000-
   Twin Cities Metro

CITY           SKY/WX    TMP DP  RH WIND       PRES   REMARKS
TWIN CITIES    CLOUDY    72  43  35 E8        30.22F
ST PAUL        CLOUDY    71  43  36 E3        30.22F
BLAINE         CLOUDY    70  46  43 N6        30.22F
LAKEVILLE      CLOUDY    70  45  40 CALM      30.21F
EDEN PRAIRIE   CLOUDY    72  43  35 NE3       30.20F
SOUTH ST PAUL  CLOUDY    71  41  33 CALM      30.21F
LAKE ELMO      FAIR      72  46  40 N5        30.23F
$$
MNZ001>005-007-008-013>017-022>024-027-028-232000-
   Northwest Minnesota

CITY           SKY/WX    TMP DP  RH WIND       PRES   REMARKS
BEMIDJI        SUNNY     71  40  32 CALM      30.16F
HALLOCK        SUNNY     77  34  20 SE9       30.10F
ROSEAU         SUNNY     79  34  19 S13       30.12F
WARROAD        SUNNY     77  43  29 SW13G18   30.12F
THIEF RVR FALL SUNNY     73  43  33 SW15      30.14F
CROOKSTON      SUNNY     77  43  29 W13G18    30.13F
FOSSTON        SUNNY     72  41  33 SW10G18   30.17F
DETROIT LAKES  SUNNY     70  43  37 S9        30.20S
MOORHEAD       SUNNY     72  43  35 S12G20    30.17F
PARK RAPIDS    MOSUNNY   73  40  30 SW8       30.18F
MAHNOMEN       FAIR      72  43  34 S6G20     30.17F
$$
MNZ006-009>011-018-025>026-232000-
   North Central Minnesota

CITY           SKY/WX    TMP DP  RH WIND       PRES   REMARKS
BAUDETTE       MOSUNNY   75  35  23 S12       30.13S
FLAG ISLAND    SUNNY     66  46  48 S16       30.10S
INTL FALLS     MOSUNNY   78  36  21 W8        30.13F
WASKISH        SUNNY     70  54  56 CALM      30.16S
BIG FORK       SUNNY     79  39  24 S14       30.16F
LONGVILLE      SUNNY     73  41  31 W8        30.18F
GRAND RAPIDS   MOSUNNY   73  37  27 S9G17     30.18F
CRANE LAKE     MOSUNNY   75  32  20 SW6       30.15F
ORR            MOSUNNY   79  30  17 S2        30.13F
COOK           SUNNY     75  37  25 SW8       30.16S
WALKER         FAIR      71  40  32 S6        30.17F
$$
MNZ012-019>021-037-232000-
   Northeast Minnesota

CITY           SKY/WX    TMP DP  RH WIND       PRES   REMARKS
DULUTH         MOSUNNY   75  32  20 S12       30.18F
ELY            MOSUNNY   75  34  22 NW5       30.15F
HIBBING        SUNNY     76  35  22 SW10G18   30.16F
EVELETH        SUNNY     77  36  22 S8        30.18S
DULUTH HARBOR  SUNNY     79  27  14 S8G16     30.16F
TWO HARBORS    SUNNY     79  48  34 SW13G20   30.16S
SILVER BAY     SUNNY     77  37  24 S18       30.15S
GRAND MARAIS     N/A     54  38  54 W12G21    30.14S
G MARAIS ARPRT MOSUNNY   72  34  25 SW10G17   30.17S
$$
MNZ029>031-032-039>041-046>048-054>057-064-232000-
   West Central Minnesota

CITY           SKY/WX    TMP DP  RH WIND       PRES   REMARKS
FERGUS FALLS   MOSUNNY   70  43  37 S13G18    30.19F
WHEATON        MOSUNNY   66  43  42 SE17      30.19F
MORRIS         PTSUNNY   70  43  37 S14G22    30.18F
ALEXANDRIA     CLOUDY    66  42  41 SE15G22   30.23F
ELBOW LAKE     PTSUNNY   66  44  44 S15G23    30.19F
WADENA         MOSUNNY   68  45  42 S7        30.20F
GLENWOOD       CLOUDY    64  45  48 S15       30.23S
APPLETON       PTSUNNY   66  45  45 SE10G16   30.19S
BENSON         CLOUDY    66  43  42 S10       30.20F
ORTONVILLE     PTSUNNY   66  45  45 SE13G18   30.18S
MADISON        PTSUNNY   68  46  45 SE14      30.18F
WILLMAR        FAIR      66  46  48 SE13      30.23S
$$
MNZ033>034-036-042>043-049>051-058-059-232000-
   Central Minnesota

CITY           SKY/WX    TMP DP  RH WIND       PRES   REMARKS
ST CLOUD       CLOUDY    63  46  54 S6        30.24F
SAUK CENTRE    MOCLDY    65  43  45 E13G18    30.23F
PAYNESVILLE    CLOUDY    62  44  51 E8        30.24S
AITKIN         MOSUNNY   73  39  29 W9G16     30.18F
PINE RIVER     MOSUNNY   72  45  37 SW9       30.22F
BRAINERD       PTSUNNY   71  41  33 W9        30.21F
STAPLES        MOSUNNY   70  39  32 S5G18     30.21F
LONG PRAIRIE   CLOUDY    64  43  45 SE13      30.23F
LITTLE FALLS   PTSUNNY   68  39  34 S8G16     30.23F
LITCHFIELD     LGT RAIN  64  50  59 E6        30.24S
BUFFALO        CLOUDY    62  52  68 N6        30.24F
MAPLE LAKE     LGT RAIN  62  53  73 N6        30.25S
$$
MNZ037-044-045-052-053-232000-
   East Central Minnesota

CITY           SKY/WX    TMP DP  RH WIND       PRES   REMARKS
PRINCETON      LGT RAIN  64  52  63 S7        30.26R
MORA           PTSUNNY   68  39  34 SW10      30.24F
CAMBRIDGE      RAIN      66  52  59 W5        30.24R
RUSH CITY      CLOUDY    67  44  42 SW8       30.25R
MOOSE LAKE     MOSUNNY   75  43  31 W9G18     30.17F
HINCKLEY       FAIR      72  46  40 SW16G25   30.22S
CLOQUET        SUNNY     75  27  16 S9G16     30.18F
MCGREGOR       MOSUNNY   72  41  33 S7        30.19F
$$
MNZ071>073-080-081-089-090-097-098-232000-
   Southwest Minnesota

CITY           SKY/WX    TMP DP  RH WIND       PRES   REMARKS
MONTEVIDEO     PTSUNNY   68  46  45 S14       30.20F
GRANITE FALLS  CLOUDY    66  47  51 SE13G18   30.21S
CANBY          PTSUNNY   67  48  51 SE18      30.19S
MARSHALL       CLOUDY    66  48  52 SE12      30.17F
REDWOOD FALLS  CLOUDY    66  54  65 VRB5      30.20F
OLIVIA         CLOUDY    61  46  59 E7        30.20F
PIPESTONE      CLOUDY    64  46  52 S15       30.17F
WINDOM         CLOUDY    68  45  42 SE13      30.18F
WORTHINGTON    CLOUDY    70  43  37 S18G24    30.17F
JACKSON        CLOUDY    72  45  37 SE13G21   30.18F
TRACY          CLOUDY    68  48  49 S13G20    30.18F
SLAYTON        CLOUDY    66  46  49 SE17      30.19S
$$
MNZ065>067-074>077-082>085-091>093-232000-
   South Central Minnesota

CITY           SKY/WX    TMP DP  RH WIND       PRES   REMARKS
MANKATO        CLOUDY    70  43  37 SE10      30.21F
NEW ULM        PTSUNNY   70  43  37 SE10G17   30.20F
ST JAMES       PTSUNNY   73  43  33 SE16      30.19F
FAIRMONT       CLOUDY    72  43  35 SE14G22   30.17F
GLENCOE        CLOUDY    66  53  63 N10       30.22S
FARIBAULT      PTSUNNY   72  39  30 E3        30.22S
OWATONNA       MOSUNNY   73  39  29 S8        30.21F
WASECA         PTSUNNY   72  41  33 S7        30.22F
ALBERT LEA     MOSUNNY   75  39  27 S12G20    30.20F
$$
MNZ078>079-086>088-094>096-232000-
   Southeast Minnesota

CITY           SKY/WX    TMP DP  RH WIND       PRES   REMARKS
ROCHESTER      MOSUNNY   72  47  40 E8        30.23F
RED WING       PTSUNNY   73  43  33 SE5       30.21S
STANTON        PTSUNNY   74  40  29 E8        30.20F
DODGE CENTER   PTSUNNY   73  39  29 E6        30.22F
WINONA         PTSUNNY   73  48  40 CALM      30.22F
AUSTIN         MOSUNNY   72  43  35 S15G21    30.21S
PRESTON        MOSUNNY   73  40  30 S16G22    30.22F
$$
ABBREVIATIONS USED IN REMARKS
   TC - TEMPERATURES IN CELSIUS
  WCI - WIND CHILL INDEX
   HX - HEAT INDEX
  VSB - VISIBILITY
$$


USA.gov is the U.S. government's official web portal to all federal, state and local government web resources and services.